This demonstration page uses our WeatherBlox Daily Observations layout. Learn more.

Left ArrowRight Arrow

44.8408, -93.29828

Hourly Observations for November 3, 2020

Temp ( °F °C ) Dew Point ( °F °C ) Humidity (%) Winds ( mph kmh ) Pressure ( in mb ) Visibility ( mi km ) Precip ( " mm )
12:53 am 00:53 Clear 39 3.9 31 -0.6 73 73 Calm 30.01 1016 10 16 0.00 0.00
1:53 am 01:53 Clear 41 5 32 0 70 70 SSW 6 9 30.01 1016 10 16 0.00 0.00
2:53 am 02:53 Clear 36 2.2 30 -1.1 79 79 Calm 29.99 1016 10 16 0.00 0.00
3:53 am 03:53 Clear 39 3.9 31 -0.6 73 73 Calm 29.97 1015 10 16 0.00 0.00
4:53 am 04:53 Clear 34 1.1 30 -1.1 85 85 E 3 6 29.96 1015 10 16 0.00 0.00
5:53 am 05:53 Clear 36 2.2 30 -1.1 79 79 SSE 3 6 29.94 1014 10 16 0.00 0.00
6:53 am 06:53 Clear 40 4.4 30 -1.1 68 68 S 5 7 29.92 1013 10 16 0.00 0.00
7:53 am 07:53 Sunny 44 6.7 31 -0.6 60 60 SSW 8 13 29.91 1013 10 16 0.00 0.00
8:53 am 08:53 Sunny 49 9.4 32 0 52 52 S 5 7 29.90 1013 10 16 0.00 0.00
9:53 am 09:53 Sunny 56 13.3 32 0 40 40 SSW 5 7 29.89 1012 10 16 0.00 0.00
10:53 am 10:53 Sunny 62 16.7 34 1.1 35 35 SW 7 11 29.87 1012 10 16 0.00 0.00
11:53 am 11:53 Sunny 67 19.4 34 1.1 30 30 SSW 14 22 29.83 1010 10 16 0.00 0.00
12:53 pm 12:53 Sunny 70 21.1 35 1.7 28 28 SW 12 19 29.81 1010 10 16 0.00 0.00
1:53 pm 13:53 Sunny 72 22.2 36 2.2 27 27 SW 12 19 29.79 1009 10 16 0.00 0.00
2:53 pm 14:53 Sunny 74 23.3 37 2.8 26 26 SSW 10 17 29.78 1008 10 16 0.00 0.00
3:53 pm 15:53 Sunny 74 23.3 37 2.8 26 26 SW 10 17 29.78 1008 10 16 0.00 0.00
4:53 pm 16:53 Sunny 71 21.7 38 3.3 30 30 SSW 9 15 29.77 1008 10 16 0.00 0.00
5:53 pm 17:53 Clear 68 20 40 4.4 36 36 SSW 6 9 29.78 1009 10 16 0.00 0.00
6:53 pm 18:53 Clear 67 19.4 40 4.4 37 37 SW 9 15 29.79 1009 10 16 0.00 0.00
7:53 pm 19:53 Clear 64 17.8 40 4.4 41 41 SW 8 13 29.80 1009 10 16 0.00 0.00
8:53 pm 20:53 Clear 62 16.7 40 4.4 44 44 SW 9 15 29.80 1009 10 16 0.00 0.00
9:53 pm 21:53 Clear 59 15 39 3.9 48 48 WSW 8 13 29.81 1010 10 16 0.00 0.00
10:53 pm 22:53 Clear 56 13.3 39 3.9 53 53 SW 6 9 29.82 1010 10 16 0.00 0.00
11:53 pm 23:53 Clear 54 12.2 38 3.3 55 55 WSW 5 7 29.83 1010 10 16 0.00 0.00

Powered by AerisWeather